Terminal Aerodrome Forecast
Issued by NWS

Home | Current Version | Previous Version | Text Only | Print | Product List | Glossary On
Versions: 1 2 3 4 5 6 7 8 9 10 11 12 13
000
FTUS44 KLIX 251100
TAFGPT
TAF
KGPT 251135Z 2512/2612 VRB02KT P6SM SCT250
     FM251400 21007KT P6SM SCT035
      TEMPO 2519/2523 2SM TSRA BKN028CB
     FM260100 23004KT P6SM SCT100 SCT250=

USA.gov is the U.S. government's official web portal to all federal, state and local government web resources and services.